Total_Precipitation_Accumulation
2.22 2.30 2.24 2.18 2.16 2.08 2.10 2.28 2.39 2.23 2.04 1.82 1.65 1.59 1.60 1.51 1.60 1.42 1.37 1.31 1.14 1.10 1.12 1.10 1.29 1.64 1.93 2.16 2.39 2.37 2.50 2.63 2.67 2.77 2.74 2.58 2.54 2.37
2.21 2.31 2.34 2.31 2.32 2.27 2.16 2.14 2.10 2.16 2.07 1.82 1.63 1.54 1.68 1.55 1.67 1.42 1.38 1.56 1.33 1.24 1.16 1.04 1.04 1.13 1.28 1.51 1.80 1.95 1.96 2.02 2.06 2.28 2.47 2.47 2.38 2.19
2.01 2.11 2.23 2.27 2.39 2.42 2.44 2.34 2.19 2.14 2.08 1.89 1.69 1.58 1.77 1.78 1.68 1.58 1.44 1.38 1.38 1.36 1.23 1.17 1.11 1.02 1.06 1.16 1.41 1.60 1.74 1.58 1.45 1.57 1.79 1.90 2.09 2.13
1.90 1.87 1.93 1.98 2.13 2.28 2.38 2.36 2.35 2.23 2.16 2.16 1.97 1.74 1.66 1.72 1.76 1.81 1.70 1.46 1.41 1.50 1.42 1.32 1.25 1.13 1.03 1.01 1.12 1.20 1.31 1.38 1.23 1.12 1.20 1.30 1.42 1.61
1.68 1.62 1.61 1.70 1.83 1.97 2.06 2.15 2.28 2.31 2.33 2.31 2.23 2.04 1.79 1.78 1.85 1.86 1.87 1.91 1.64 1.55 1.55 1.49 1.43 1.37 1.25 1.08 1.02 1.03 1.04 1.11 1.13 1.00 0.92 1.03 1.08 1.23
1.34 1.32 1.35 1.39 1.48 1.65 1.79 1.99 2.18 2.30 2.37 2.39 2.34 2.12 1.94 1.87 1.84 1.88 1.98 2.03 1.99 1.74 1.63 1.54 1.61 1.57 1.39 1.24 1.11 1.07 1.07 1.07 1.12 1.14 0.97 0.87 0.89 0.93
1.10 0.99 1.01 1.10 1.14 1.25 1.27 1.54 1.80 2.03 2.16 2.23 2.22 2.08 1.88 1.78 1.65 1.69 1.83 2.01 2.07 2.01 1.90 1.63 1.55 1.49 1.44 1.39 1.26 1.17 1.11 1.15 1.16 1.18 1.18 1.04 1.00 0.96
0.96 0.87 0.86 0.91 0.86 0.85 0.88 1.11 1.41 1.58 1.76 1.95 2.02 1.90 1.74 1.68 1.73 1.71 1.72 1.78 1.82 1.73 1.71 1.70 1.61 1.52 1.45 1.40 1.41 1.36 1.25 1.21 1.27 1.25 1.27 1.23 1.16 1.16
0.98 0.99 0.89 0.85 0.94 0.84 0.80 0.90 0.98 1.10 1.26 1.53 1.74 1.73 1.83 1.76 1.67 1.59 1.61 1.65 1.64 1.68 1.69 1.68 1.58 1.48 1.38 1.34 1.48 1.39 1.37 1.32 1.35 1.40 1.33 1.35 1.31 1.27
1.04 1.11 1.11 1.04 1.02 1.09 1.03 1.03 0.99 0.93 1.04 0.95 1.13 1.51 1.67 1.75 1.72 1.75 1.84 1.77 1.61 1.63 1.64 1.65 1.57 1.45 1.31 1.23 1.33 1.24 1.17 1.16 1.25 1.44 1.52 1.50 1.51 1.47
0.94 1.06 1.10 1.05 1.12 1.20 1.29 1.33 1.25 1.08 1.22 1.23 1.12 1.24 1.41 1.47 1.59 1.68 1.74 1.66 1.60 1.50 1.38 1.35 1.30 1.33 1.37 1.28 1.24 1.28 1.19 1.15 1.12 1.14 1.25 1.31 1.43 1.57
0.97 1.03 1.20 1.12 1.10 1.07 1.13 1.25 1.23 1.08 0.97 1.01 0.98 0.89 0.83 0.96 1.18 1.32 1.60 1.72 1.66 1.55 1.34 1.27 1.30 1.29 1.32 1.23 1.13 1.16 1.15 1.22 1.21 1.15 1.17 1.24 1.31 1.36
1.10 1.13 1.11 1.22 1.06 1.00 1.00 0.99 1.08 1.08 1.06 1.10 1.17 1.05 0.93 0.89 0.94 1.01 1.23 1.47 1.62 1.52 1.37 1.25 1.29 1.32 1.23 1.09 1.03 1.04 1.05 1.04 1.09 1.16 1.21 1.30 1.35 1.27
0.98 0.97 0.95 1.06 0.92 0.83 0.78 0.83 0.91 0.97 1.05 1.16 1.14 1.08 1.06 0.99 0.98 1.01 1.08 1.20 1.31 1.38 1.39 1.36 1.31 1.28 1.24 1.09 1.02 1.01 1.01 0.99 0.96 1.01 1.05 1.30 1.44 1.47
0.68 0.79 0.84 0.83 0.78 0.71 0.76 0.80 0.81 0.83 0.93 1.01 1.02 0.97 0.96 1.01 1.02 1.02 1.06 1.11 1.11 1.05 1.07 1.14 1.26 1.31 1.30 1.20 1.05 1.02 1.03 0.98 0.91 0.91 0.99 1.06 1.13 1.29
0.62 0.67 0.71 0.69 0.67 0.68 0.72 0.76 0.79 0.83 0.87 0.90 0.89 0.92 0.94 1.01 1.08 1.05 1.06 1.13 1.20 1.14 1.06 1.10 1.20 1.33 1.34 1.23 1.17 1.10 1.06 1.03 0.94 0.91 0.92 0.99 1.09 1.18
0.73 0.67 0.65 0.65 0.65 0.71 0.74 0.73 0.76 0.80 0.81 0.80 0.84 0.87 0.87 0.92 0.97 0.97 1.00 1.06 1.10 1.04 1.02 1.09 1.17 1.25 1.29 1.29 1.30 1.20 1.17 1.17 1.14 1.10 1.06 1.04 1.04 1.10
0.74 0.79 0.82 0.87 0.88 0.86 0.83 0.74 0.69 0.71 0.77 0.83 0.85 0.86 0.87 0.85 0.89 0.93 0.97 1.05 1.08 0.99 0.91 0.95 1.08 1.21 1.23 1.13 1.05 1.04 1.07 1.09 1.16 1.23 1.18 1.13 1.06 1.07
0.70 0.86 0.89 0.87 0.83 0.80 0.76 0.69 0.63 0.61 0.65 0.74 0.85 0.93 0.93 0.92 0.94 0.99 1.00 0.97 0.98 0.97 0.91 0.86 0.92 1.08 1.15 1.00 0.86 0.84 0.89 0.93 1.03 1.09 1.12 1.06 1.00 1.04
0.67 0.77 0.79 0.78 0.72 0.66 0.59 0.54 0.54 0.54 0.54 0.59 0.63 0.72 0.88 0.98 1.05 1.08 1.11 1.13 1.13 1.09 1.03 0.92 0.85 0.89 1.00 1.00 0.88 0.75 0.76 0.83 0.94 0.99 1.01 1.02 1.02 1.07
0.48 0.51 0.51 0.53 0.53 0.50 0.48 0.50 0.53 0.54 0.55 0.55 0.55 0.59 0.69 0.84 1.01 1.11 1.16 1.23 1.21 1.20 1.18 1.09 1.04 1.13 1.07 1.10 1.06 0.83 0.72 0.77 0.86 0.90 0.95 1.03 1.04 0.99
0.41 0.41 0.42 0.43 0.43 0.43 0.45 0.48 0.54 0.57 0.55 0.56 0.60 0.64 0.74 0.79 0.84 0.95 1.11 1.17 1.11 1.08 1.09 1.11 1.15 1.18 1.16 1.22 1.16 0.98 0.86 0.80 0.85 0.93 0.96 1.00 1.01 1.00
0.38 0.40 0.43 0.43 0.44 0.48 0.49 0.50 0.53 0.57 0.58 0.59 0.61 0.66 0.74 0.83 0.89 0.91 0.94 0.99 1.05 1.10 1.10 1.10 1.10 1.12 1.15 1.20 1.28 1.23 1.09 0.97 0.93 0.94 0.95 1.04 1.00 0.88